Theta_e
321 317 311 313 319 319 320 321 320 319 319 317 317 322 325 337 342 342 339 343 347 354 352 353 352 352 351 350 348 345 344 343
315 311 315 318 320 321 320 321 320 319 317 320 324 324 328 338 342 340 339 341 348 354 353 353 353 353 352 351 349 347 344 344
311 312 316 320 322 321 319 319 319 318 317 319 324 327 329 337 340 337 339 340 346 354 354 354 353 353 353 352 351 350 347 346
308 311 316 319 320 319 319 320 319 316 317 319 326 327 329 335 340 338 338 342 347 353 354 353 354 353 352 352 351 350 350 349
310 310 312 316 320 318 318 318 318 321 316 322 326 329 330 333 339 340 340 341 347 351 354 354 353 353 352 351 351 351 351 350
311 309 310 316 318 319 318 317 323 321 317 319 328 330 331 333 334 339 340 340 342 349 348 350 350 354 353 353 352 352 352 351
309 310 312 318 316 320 322 319 321 322 322 325 328 329 330 331 332 333 335 340 341 343 346 348 347 348 353 352 352 352 350 349
315 316 315 317 316 317 317 318 318 320 324 326 328 329 328 328 328 331 332 336 339 344 346 347 343 347 352 347 347 346 345 346
316 318 318 316 317 319 316 315 319 318 321 324 325 326 327 328 329 329 332 335 337 345 347 347 344 345 346 345 344 344 346 346
318 319 318 316 319 317 318 318 322 322 322 322 323 324 324 325 329 330 330 334 338 342 347 349 344 344 344 341 341 340 339 343
318 318 318 319 316 317 317 320 322 320 320 320 321 322 323 325 328 332 330 333 338 342 347 349 349 344 342 339 336 338 337 340
316 317 318 315 315 316 317 318 318 317 318 319 318 320 323 325 329 332 333 334 338 341 347 348 349 347 341 340 338 337 336 338
312 314 313 316 310 310 315 316 315 316 317 318 319 321 323 327 330 332 334 336 337 340 345 347 346 343 340 338 338 335 336 341
310 311 312 311 303 312 316 315 314 315 317 317 318 321 324 326 330 334 335 335 337 336 342 345 344 341 338 337 337 336 338 340
306 312 309 308 305 312 315 314 314 316 317 317 317 321 326 328 331 333 335 336 334 337 339 342 342 340 340 341 337 337 339 339
305 310 307 306 305 311 313 313 314 316 316 316 317 320 325 329 330 331 333 335 335 336 339 341 339 339 337 336 336 338 338 339
306 310 307 306 307 310 314 314 314 316 316 317 318 324 326 328 328 329 332 333 335 336 340 337 335 333 332 331 334 337 338 340
307 309 308 305 306 311 313 314 315 315 316 317 319 323 325 326 328 330 332 334 335 337 339 338 335 336 334 334 336 337 339 339
302 306 307 305 302 306 312 314 316 316 316 317 317 322 325 325 328 330 331 334 335 338 339 339 339 337 338 338 337 334 335 336
301 299 295 304 296 305 310 311 313 314 316 316 320 323 325 326 328 330 331 334 336 338 339 338 339 337 336 331 329 335 333 338
Wind_Speed
6 8 10 2 10 5 2 1 2 4 4 1 3 2 3 5 17 13 17 17 19 24 21 20 18 16 15 14 14 14 13 12
10 11 6 7 6 3 5 5 2 4 6 4 4 1 0 7 16 14 17 17 17 22 21 19 18 17 15 15 14 14 14 13
11 13 7 7 9 7 8 4 5 1 3 3 4 2 1 7 14 14 15 17 17 20 20 20 19 18 17 16 14 14 13 13
12 14 8 8 9 9 11 8 3 4 6 1 5 3 1 6 13 13 14 16 15 19 20 19 19 18 17 16 15 14 13 13
15 11 10 12 6 10 6 6 5 5 9 2 3 9 4 5 9 11 11 14 14 16 19 17 17 17 16 15 14 14 13 13
13 13 11 2 7 1 4 3 3 4 7 7 10 8 5 6 9 14 13 14 15 14 18 18 16 14 14 14 13 13 13 13
19 15 11 6 10 5 3 11 12 9 12 11 11 9 8 7 10 12 14 16 16 16 16 17 17 15 14 15 13 11 13 13
21 13 16 14 10 11 9 13 17 17 15 11 11 12 13 13 12 14 18 17 16 15 15 15 12 13 13 13 11 11 11 10
23 18 19 18 20 17 17 15 21 19 17 17 17 17 17 16 17 15 15 17 17 15 14 15 13 10 7 8 7 7 9 8
24 25 19 19 23 21 19 19 23 21 19 21 23 20 19 19 19 15 14 18 18 17 15 15 10 10 10 7 7 6 7 9
21 25 23 20 23 28 24 20 24 20 19 21 21 23 23 22 18 15 15 15 17 17 16 14 13 10 9 8 8 7 6 8
27 25 21 23 26 25 21 22 23 21 21 20 21 22 20 19 17 15 13 13 15 18 18 17 14 12 10 8 7 7 7 6
22 22 25 21 26 26 20 23 22 18 18 20 20 20 18 17 17 15 11 12 16 18 19 17 16 12 9 8 7 7 6 6
24 22 22 18 26 22 18 20 18 17 18 19 21 21 18 20 18 13 11 13 15 16 20 19 15 12 9 7 7 6 6 6
25 21 18 21 31 22 16 17 14 17 20 20 21 21 17 17 14 12 9 11 16 17 19 18 13 11 9 8 7 6 5 6
27 20 15 24 29 20 20 19 21 18 21 19 21 22 16 13 12 6 7 12 14 14 16 15 12 9 8 7 7 6 6 7
22 21 21 27 28 23 18 18 23 20 21 21 21 18 10 7 4 4 7 11 13 14 15 13 11 10 8 8 6 5 5 7
23 22 23 23 28 25 24 22 24 22 23 20 20 15 8 3 4 7 10 12 14 15 16 12 9 6 4 4 4 3 3 4
27 19 22 24 29 30 26 26 22 17 18 23 20 15 5 5 6 9 11 13 15 16 15 11 9 7 5 4 4 5 5 5
25 21 24 21 24 27 21 21 22 23 20 20 15 8 5 7 9 10 12 14 16 15 13 10 9 7 5 3 4 1 3 2
Wind_Direction
232 239 255 225 185 130 144 312 242 221 266 316 247 221 307 66 159 165 169 175 186 177 189 185 187 189 192 193 195 199 206 214
248 233 234 262 171 188 255 183 223 321 249 185 303 346 329 136 164 170 177 181 177 178 189 188 188 190 194 198 202 207 212 220
238 247 248 226 266 290 262 256 274 313 243 267 106 280 260 174 183 183 181 187 182 180 188 191 189 191 195 199 206 211 215 225
237 236 233 245 254 258 256 237 233 230 270 266 73 14 339 211 203 200 184 190 193 180 193 192 193 192 195 198 203 210 218 227
265 275 251 254 235 220 236 207 197 333 266 307 84 16 346 224 214 216 201 200 197 186 195 197 196 195 198 202 205 210 218 228
247 259 267 141 220 324 240 294 360 267 259 250 5 2 339 254 232 210 208 205 206 203 192 201 197 199 201 205 207 214 222 231
245 247 245 164 250 152 309 276 286 258 270 288 324 312 305 281 266 231 218 209 209 203 201 200 201 190 199 211 213 219 228 230
254 264 262 270 257 280 278 278 280 274 240 239 260 281 282 277 262 240 235 218 213 216 210 201 201 200 200 208 218 222 232 244
244 250 263 290 279 277 273 266 268 291 309 293 286 281 278 270 272 276 240 222 213 203 207 208 196 190 198 203 209 224 242 245
262 261 255 261 275 278 267 272 278 291 294 292 291 287 280 272 266 269 250 230 210 203 204 204 201 192 197 201 206 217 229 227
249 264 272 265 265 269 275 281 278 293 287 282 281 278 277 272 267 268 261 234 209 198 200 196 206 190 202 202 198 224 222 219
255 255 260 262 263 269 271 274 280 286 289 291 289 285 280 274 264 265 255 235 205 195 195 191 193 191 190 196 202 216 224 227
245 250 253 264 263 255 266 267 273 278 286 285 287 285 279 273 267 270 260 229 200 194 192 189 188 183 195 184 218 215 223 215
231 227 242 239 266 264 272 271 275 285 288 291 289 284 282 271 269 265 252 214 187 195 188 183 176 178 186 184 210 222 223 229
241 236 241 230 257 254 255 273 273 279 291 297 293 284 277 275 260 268 242 194 193 198 184 177 168 169 175 178 216 223 228 236
258 232 222 241 251 255 257 270 275 286 293 291 289 280 287 288 288 266 194 189 196 187 179 171 159 160 174 181 212 221 231 241
236 242 244 249 256 256 261 270 276 286 285 288 289 287 287 293 287 173 175 180 185 178 161 165 165 173 180 199 203 220 235 245
249 238 236 251 268 275 271 272 278 279 282 281 284 285 273 259 180 169 159 165 165 161 162 168 161 178 192 198 197 260 263 256
252 255 251 257 265 267 265 258 272 268 262 272 275 274 243 194 171 157 154 156 158 157 160 162 145 151 157 154 211 214 202 224
255 253 251 247 269 263 272 269 265 268 276 268 257 237 213 172 166 156 149 153 152 152 154 149 167 162 177 230 234 81 255 267